RH
82 79 76 79 79 78 83 89 91 94 96 98 99 97 92 89 89 90 88 75 62 58 56 55 55 53 52 52 51 53 58 61 57 49 44 43 43 43 42 40 40 49 58 60 63 72 80 75 51 18 7 33 70 81 75 72 69 68 72 79 87 89 85 84 84 85 85 78 75 78 80 80 80 81
82 84 80 78 78 77 81 84 84 86 90 93 95 96 95 92 89 87 89 84 70 58 54 53 54 53 52 52 52 52 53 58 62 59 53 50 48 47 47 45 41 44 56 65 66 67 75 86 82 55 18 16 56 86 85 78 69 63 66 69 72 74 72 73 78 84 89 86 82 84 85 84 84 85
75 82 85 83 81 79 79 78 76 77 80 84 89 92 92 91 89 84 85 88 76 59 54 54 53 52 51 48 48 48 48 50 56 62 62 57 54 52 49 46 41 38 45 60 69 71 77 82 85 82 56 26 36 67 85 87 76 65 65 68 68 67 64 63 69 79 89 91 89 87 85 85 84 83
74 79 84 86 84 81 81 79 77 75 75 78 84 90 91 90 88 85 86 90 80 63 58 58 54 52 51 47 44 43 43 45 48 54 60 62 61 58 53 48 45 40 38 50 65 74 81 82 78 83 82 61 42 43 54 65 70 68 68 69 72 75 72 65 64 73 84 87 85 81 79 79 80 79
80 83 86 86 83 83 83 81 79 77 76 79 84 89 93 92 89 88 88 89 85 74 65 61 58 54 50 47 45 42 40 42 44 46 51 57 59 60 58 55 51 46 38 39 54 71 81 84 79 76 81 82 72 56 41 36 43 56 63 64 69 78 82 75 67 67 74 78 76 73 72 72 73 73
82 85 87 86 82 82 83 81 80 80 79 82 87 91 94 94 91 88 86 86 88 84 73 65 62 56 51 49 47 45 43 41 42 44 45 47 50 52 55 56 54 51 46 38 40 59 79 85 82 77 74 78 84 81 65 42 29 36 49 56 60 67 73 76 75 72 70 70 69 67 65 63 64 67
81 84 85 83 80 80 82 82 82 83 83 85 88 90 93 95 94 90 87 85 87 87 80 71 65 59 55 54 51 48 47 44 42 43 44 44 46 48 49 52 52 50 50 44 36 44 69 84 84 80 76 74 78 81 80 69 51 43 48 55 59 59 57 59 67 73 73 70 67 62 60 59 58 61
80 84 85 83 81 81 85 87 86 87 87 87 89 90 92 93 94 93 91 88 87 88 86 76 69 65 61 58 57 53 47 44 43 43 44 46 48 49 49 49 50 49 47 46 40 36 50 72 81 81 80 79 79 77 76 77 73 68 66 66 67 66 58 52 53 60 68 71 70 66 64 64 63 62
81 84 85 82 81 84 90 93 92 89 86 85 87 90 92 93 92 92 94 93 90 90 90 82 72 68 63 58 56 53 47 44 46 47 48 50 49 51 53 51 51 53 50 48 45 38 43 62 75 81 81 77 76 78 77 75 74 75 76 74 72 70 68 64 61 61 63 66 70 72 71 68 67 66
83 83 83 80 80 85 90 93 91 88 84 83 84 86 90 91 92 93 94 94 94 94 94 88 76 67 62 57 52 51 47 43 47 51 52 53 52 52 54 56 56 57 56 54 50 44 48 62 70 77 81 78 74 76 77 76 74 73 74 74 73 72 71 71 71 69 68 69 71 72 71 70 70 70
86 84 82 81 81 83 86 88 87 86 85 84 83 82 85 88 91 94 94 94 96 97 96 95 85 72 63 57 51 48 46 44 46 51 55 57 58 57 56 58 61 62 61 60 56 48 48 57 65 69 71 74 78 80 78 76 74 73 73 71 71 72 73 73 73 73 75 75 74 72 70 71 71 70
89 87 84 83 82 82 83 84 84 84 83 83 83 81 83 88 92 94 95 96 97 98 98 97 94 82 67 56 50 47 48 51 52 52 55 60 61 61 61 59 59 61 61 63 64 58 51 53 61 67 65 62 66 71 75 78 76 74 72 70 70 72 73 74 75 76 76 76 76 76 75 75 73 70
95 92 90 88 86 85 84 84 84 84 82 80 78 78 80 87 92 94 95 96 97 98 98 97 96 92 80 64 55 52 51 53 53 51 55 60 62 63 65 63 60 60 61 65 68 67 62 58 60 66 65 58 53 51 58 73 80 77 73 71 70 71 73 76 78 76 75 75 76 78 78 77 73 69
99 97 95 93 90 88 87 86 86 87 86 81 75 70 70 78 88 95 97 96 95 96 98 97 95 96 92 78 65 59 55 50 49 53 56 59 62 65 68 69 67 64 64 67 69 68 68 67 66 67 65 58 53 46 44 62 80 80 76 76 75 75 78 82 84 80 77 76 77 77 78 78 74 71
95 96 96 94 93 91 89 88 87 86 85 83 79 74 68 67 76 87 94 96 95 94 94 94 94 95 94 88 76 68 62 56 53 54 55 57 62 66 71 72 69 66 67 68 69 68 69 69 70 71 68 62 58 49 42 57 77 81 78 80 80 81 85 84 81 80 79 80 80 79 78 78 78 78
89 92 93 93 93 92 90 89 88 87 85 83 83 81 77 72 74 81 87 90 92 94 92 91 92 92 91 90 84 76 70 64 59 56 56 59 62 65 68 69 66 64 65 68 70 70 68 69 70 72 72 68 65 60 52 57 73 81 81 81 80 82 86 83 78 77 78 78 80 81 81 81 81 81
87 88 90 92 92 92 91 90 89 88 87 85 85 85 84 82 81 81 83 83 85 88 90 89 88 86 87 89 86 81 76 69 64 62 61 59 61 64 66 65 63 62 63 66 70 71 70 70 70 71 72 73 72 71 66 64 71 77 79 79 76 76 80 81 78 78 79 78 80 82 82 82 82 82
91 90 91 92 92 91 91 91 90 89 87 86 87 89 91 90 87 86 86 85 84 84 86 87 84 79 79 81 80 79 78 73 67 66 65 62 62 64 63 62 63 63 62 62 67 73 73 71 71 72 73 74 74 73 71 69 69 71 72 74 75 75 78 81 80 80 80 81 80 79 79 79 79 80
95 97 97 96 95 93 91 91 90 90 88 87 87 89 91 92 91 90 90 89 88 87 85 84 82 78 75 75 76 77 77 76 71 67 65 63 62 63 64 66 68 67 64 63 66 73 73 69 72 74 73 75 76 74 72 70 68 70 74 79 82 82 81 82 83 82 81 80 79 78 79 79 79 80
88 93 97 99 100 97 94 92 90 90 90 91 92 92 92 93 94 94 93 91 90 89 88 85 82 80 76 75 76 77 76 76 73 68 67 65 63 66 71 73 72 69 68 66 66 71 72 70 71 72 72 73 74 73 73 71 70 77 85 88 88 88 86 84 83 81 79 76 76 76 76 76 78 80
89 90 90 93 98 100 99 96 92 91 92 93 95 96 95 96 97 97 96 95 92 90 90 88 85 83 81 78 77 77 76 76 73 72 74 72 69 72 78 79 77 73 69 67 67 70 72 71 71 71 70 70 70 71 71 70 70 80 90 92 89 87 87 84 81 79 77 75 75 74 73 75 79 81
94 94 90 88 90 95 99 99 95 94 94 95 95 95 96 97 97 98 99 98 97 94 91 90 89 87 86 83 81 79 78 77 75 73 74 73 72 75 78 80 80 78 72 66 66 70 71 70 72 71 68 68 67 66 67 68 68 73 82 89 90 88 88 86 81 77 75 74 74 74 74 76 79 81
95 95 93 90 90 91 95 97 97 96 96 97 95 93 95 96 95 93 93 94 96 96 95 94 95 95 92 89 87 85 82 80 77 74 71 70 72 76 76 76 82 87 82 70 66 70 71 69 69 69 70 76 74 66 65 66 64 64 68 75 80 82 83 82 79 79 80 79 78 79 81 82 84 86
97 96 95 93 93 93 94 94 94 94 94 96 97 95 94 94 92 88 85 84 86 90 94 95 97 100 99 95 91 89 88 86 82 76 73 72 73 75 76 77 79 82 79 70 66 70 70 68 68 66 68 75 73 66 66 68 65 63 64 64 66 68 69 70 70 74 79 79 78 81 86 87 90 91
100 99 99 97 94 95 96 93 92 91 91 94 97 98 95 91 88 87 84 83 86 91 95 97 98 100 100 99 97 93 92 93 90 83 80 80 80 77 76 77 79 78 75 70 67 69 69 70 71 68 66 68 65 59 62 66 66 66 64 62 61 59 59 58 56 56 57 57 60 69 77 81 83 79
99 98 98 98 97 97 98 95 92 90 92 95 98 99 96 91 87 87 86 88 92 96 98 99 100 100 100 100 100 97 95 97 97 94 89 87 84 79 75 76 78 77 76 72 68 68 69 70 72 72 72 73 68 60 56 55 56 57 56 55 53 49 47 46 43 42 40 38 41 52 63 69 66 56
100 98 98 99 99 99 99 98 94 91 94 98 99 99 98 94 89 88 90 93 95 98 99 99 100 101 100 99 100 100 99 99 99 99 95 90 86 84 80 79 78 77 75 73 70 68 68 69 70 71 71 73 73 69 62 55 50 47 45 46 46 45 44 43 41 40 39 37 37 40 44 45 40 32
100 99 98 98 99 100 99 97 93 91 93 97 96 96 99 96 92 91 93 93 94 97 99 100 100 100 100 100 100 100 100 100 100 100 98 95 92 89 86 84 83 83 80 76 73 70 69 69 70 70 70 71 72 72 67 59 53 48 44 43 45 44 45 45 45 44 43 40 38 35 34 31 28 27
100 99 97 94 95 97 96 92 90 90 93 96 94 94 98 98 95 94 94 94 96 98 99 100 100 99 100 100 100 100 100 100 100 100 100 100 97 94 91 89 88 87 83 79 76 74 72 71 70 71 72 72 71 70 66 58 53 48 44 43 45 45 45 45 46 45 42 40 37 35 34 33 31 30
99 99 99 97 96 96 94 91 89 87 89 93 94 94 98 100 98 97 97 97 99 100 99 100 100 99 100 100 100 100 100 100 100 100 100 100 100 97 94 92 90 88 84 81 79 78 78 78 76 75 76 74 71 68 62 54 49 45 44 44 45 45 45 45 44 43 41 39 38 37 37 37 37 37
99 99 100 100 99 97 96 95 93 89 89 94 97 97 99 100 100 100 99 97 98 99 99 100 100 100 100 100 100 100 100 100 100 100 100 100 101 99 95 94 95 94 90 86 85 84 85 84 78 72 70 68 63 57 51 48 45 45 46 47 46 46 46 46 45 42 40 40 41 42 42 41 41 42
100 100 100 100 100 99 99 100 99 96 96 99 100 99 100 100 100 100 100 98 99 100 100 100 100 100 100 100 100 100 100 100 100 100 100 100 100 99 96 96 98 99 95 91 87 83 80 78 72 66 61 58 53 48 47 49 49 48 50 50 49 48 47 46 45 42 43 46 47 46 46 45 44 45
98 99 99 99 100 100 100 100 100 100 100 100 100 100 100 100 100 100 100 100 100 100 99 100 100 100 100 100 100 100 100 100 100 100 101 100 99 98 96 95 96 95 91 88 85 81 78 76 72 65 59 54 51 49 51 53 52 49 49 52 53 50 46 44 44 44 46 50 51 48 47 46 46 46
94 96 99 100 100 100 100 100 100 100 100 100 100 100 100 100 100 100 100 100 100 100 100 100 100 100 100 100 100 100 100 100 100 100 101 100 98 97 95 94 94 92 89 87 86 83 79 74 68 61 56 55 55 53 52 53 52 49 48 51 53 49 43 42 44 45 48 51 53 53 51 46 42 42
94 97 100 100 100 100 100 100 100 100 100 100 100 100 100 100 100 100 100 100 100 100 100 100 100 100 100 100 100 100 100 100 100 100 101 100 98 96 94 92 91 88 84 81 77 72 67 62 59 61 63 63 62 59 55 51 50 52 55 55 52 46 42 43 45 48 51 54 56 60 61 53 42 37
95 99 100 100 101 100 100 100 100 100 100 100 100 100 100 101 101 99 99 99 98 98 99 100 100 101 100 100 100 100 100 100 100 101 102 101 98 96 93 90 85 79 74 69 63 58 59 59 59 64 74 77 76 72 63 51 46 50 55 54 51 48 44 45 49 52 54 57 60 66 71 63 47 37
94 97 98 100 102 100 100 101 100 100 100 100 100 100 100 100 100 98 97 97 97 97 98 98 99 101 101 100 100 100 100 101 101 101 101 99 95 92 89 85 79 71 66 64 60 57 60 63 61 65 75 83 85 80 69 54 48 51 53 51 51 49 47 51 57 58 59 63 65 67 70 68 56 44
92 93 94 98 99 99 100 100 100 100 101 100 99 99 98 98 97 96 96 97 97 97 99 100 100 101 101 100 100 100 101 101 101 99 98 95 91 87 83 78 73 67 64 65 64 62 62 64 63 62 68 77 82 80 72 61 52 50 50 49 49 48 51 58 63 64 65 70 72 72 73 72 64 52
91 91 92 94 95 97 98 98 98 99 99 98 97 95 94 94 95 95 96 97 97 97 98 99 100 101 101 100 100 100 100 100 99 96 93 89 85 81 76 72 70 68 67 69 69 67 65 64 62 59 59 63 67 66 63 59 54 51 52 55 55 54 58 64 70 74 77 77 77 77 76 75 71 65
92 91 92 93 93 94 95 96 97 97 97 96 95 92 89 90 91 93 95 96 97 97 97 98 99 100 101 101 100 100 99 98 96 93 89 85 81 76 70 67 65 65 67 71 73 71 66 60 56 53 52 53 56 57 58 61 62 59 59 60 61 62 66 70 75 82 82 77 76 80 84 87 89 85
93 93 94 94 93 93 93 95 95 94 94 94 91 88 86 86 88 92 94 95 95 96 96 97 98 99 99 100 99 99 98 97 94 91 87 82 77 71 66 64 63 63 67 73 74 69 60 53 52 53 55 57 61 65 70 74 74 67 61 58 59 64 70 75 79 82 79 73 78 90 96 98 100 98
92 92 94 94 94 94 93 93 93 93 92 91 87 83 83 83 84 89 92 95 96 96 95 95 95 95 97 98 97 97 96 94 91 88 83 78 73 68 65 63 61 60 63 66 65 59 54 53 55 59 63 64 66 73 80 81 78 73 68 64 63 64 68 74 82 89 91 89 94 101 101 98 101 101
93 93 93 93 93 94 93 92 92 91 90 88 84 82 80 78 78 81 86 91 95 95 94 94 93 92 93 94 94 95 94 91 88 85 80 74 69 64 61 59 57 55 54 57 58 57 57 59 60 62 66 68 71 76 82 80 77 77 76 74 73 72 71 72 77 84 88 89 92 96 98 99 102 97
94 93 93 92 93 93 92 92 92 91 91 89 86 84 82 78 74 73 76 82 88 92 93 93 93 92 92 92 92 92 91 88 85 82 77 72 65 58 55 55 55 55 55 57 62 65 64 64 65 66 69 71 71 75 80 81 82 83 82 80 80 79 77 77 79 80 80 78 77 78 81 86 95 98
94 95 94 93 94 94 93 93 92 91 91 90 89 87 85 83 78 73 69 69 74 80 85 87 88 88 89 89 89 89 87 84 80 76 72 67 60 56 55 55 56 58 59 61 65 68 69 71 74 75 74 74 75 77 79 81 84 86 86 87 88 85 82 83 86 88 87 79 70 67 68 67 72 85
Wind_Speed
23 22 21 21 20 19 18 19 18 19 20 20 20 20 19 13 6 4 5 4 6 14 19 20 22 27 30 30 30 30 30 30 33 35 37 37 38 38 37 36 35 34 33 32 32 31 31 32 35 40 41 37 32 28 28 30 33 32 29 26 24 22 23 25 27 29 27 26 27 27 25 23 22 20
20 21 22 21 21 19 18 17 17 16 18 19 19 18 19 17 11 5 4 6 8 13 19 22 22 23 25 27 28 30 30 30 31 32 34 35 36 36 35 34 34 34 33 31 31 32 31 31 31 34 39 39 32 27 26 27 32 34 32 30 29 29 27 25 24 25 26 25 27 26 23 22 22 22
16 19 22 23 23 21 19 17 16 16 16 18 20 20 19 17 15 11 5 4 9 15 18 21 22 21 21 23 26 28 30 30 31 30 31 33 33 33 34 34 34 34 34 31 30 30 30 31 31 30 32 36 35 30 26 25 30 34 33 30 29 31 33 30 25 23 24 24 23 22 21 20 21 22
16 18 21 25 25 23 21 19 18 17 17 17 19 20 21 20 18 16 9 4 6 12 14 16 18 19 19 20 23 25 27 29 30 30 30 30 31 31 33 33 33 33 33 32 30 29 29 30 31 30 28 30 32 33 32 30 30 32 33 32 30 28 30 32 29 25 24 24 23 23 23 22 19 20
18 18 19 23 24 21 20 20 19 18 18 18 19 20 21 21 21 19 14 8 6 8 11 12 13 15 17 19 21 23 24 26 27 28 29 29 30 31 32 33 33 32 32 32 31 29 28 28 29 30 28 26 26 29 32 33 32 31 31 32 31 27 26 29 31 29 28 25 24 24 25 25 22 21
19 18 19 20 20 19 19 19 20 20 20 20 20 21 21 21 22 22 20 14 8 7 10 13 13 14 17 19 20 21 22 23 25 26 28 29 30 31 32 32 32 32 31 31 31 30 28 27 28 29 29 26 24 23 25 28 31 30 29 29 30 29 28 28 28 29 30 29 27 25 25 25 25 23
20 20 20 21 20 20 21 22 21 21 20 20 21 21 22 23 23 24 24 19 13 8 10 15 16 15 17 19 19 20 21 22 23 25 26 28 29 30 30 31 32 32 31 30 30 31 29 27 27 28 29 28 25 23 22 23 25 27 27 27 28 29 29 29 27 26 27 29 29 27 25 24 23 23
22 22 22 22 22 22 23 23 23 21 20 20 21 22 23 24 24 24 25 24 20 14 11 14 18 19 19 20 20 20 21 22 24 25 25 25 26 28 28 29 30 30 30 29 29 30 30 29 28 27 28 28 26 25 24 23 23 23 24 24 24 24 25 26 26 26 24 23 24 24 22 21 21 22
24 24 24 24 23 23 24 23 23 22 21 21 22 22 22 23 24 24 24 24 23 18 13 13 17 19 20 20 20 22 22 22 22 22 23 24 24 25 26 27 28 29 28 28 28 28 29 29 28 27 27 27 27 26 25 24 24 23 23 24 24 23 23 23 24 25 24 22 21 20 20 21 22 24
25 25 25 24 24 24 24 24 23 22 22 22 22 23 23 23 23 23 22 23 23 21 18 15 15 18 20 20 20 22 24 24 23 21 21 22 23 24 25 26 27 27 27 26 26 27 28 28 29 28 27 26 26 26 25 25 25 25 24 24 25 25 25 25 25 24 22 22 22 22 22 23 24 26
25 26 26 25 25 25 25 25 24 24 23 23 23 23 23 23 22 21 21 22 22 20 19 16 15 17 20 20 19 20 23 23 22 22 20 20 22 24 24 25 25 25 25 25 25 26 27 27 28 29 29 28 26 25 25 25 25 26 25 24 25 27 27 26 26 24 22 21 22 23 24 25 26 27
25 26 26 26 26 25 25 25 26 26 26 25 24 23 23 23 23 22 21 22 21 20 18 15 15 17 18 18 17 16 18 18 18 22 23 21 21 23 23 24 24 24 25 25 24 25 26 27 27 28 29 30 29 27 25 24 25 26 27 26 26 26 26 26 25 24 22 22 23 24 24 26 26 27
23 24 25 25 25 26 26 26 27 27 27 26 25 24 23 23 23 22 21 21 20 19 17 14 14 15 16 18 18 16 18 21 22 24 23 19 18 20 21 22 24 24 24 24 24 25 26 27 27 27 28 29 30 29 27 26 26 26 27 29 29 27 26 24 23 23 23 24 25 25 25 26 26 27
20 21 23 24 25 25 26 26 27 27 27 28 27 25 24 24 24 23 21 21 21 19 16 15 15 12 12 18 22 21 23 27 24 21 21 19 16 15 15 16 20 24 23 22 23 24 25 26 26 27 28 29 29 29 29 29 29 27 26 27 28 28 25 21 21 23 24 25 25 26 26 26 26 27
18 19 21 22 23 24 25 26 27 27 27 28 28 27 26 25 25 25 23 21 22 20 18 18 18 15 14 19 24 24 25 26 23 21 23 21 17 15 12 9 13 20 24 22 20 21 22 24 26 26 28 29 29 29 30 31 31 29 27 26 26 25 22 20 22 23 24 25 25 25 26 25 26 26
20 20 21 22 23 24 25 26 27 27 28 28 28 28 28 27 27 28 27 25 24 23 21 19 19 20 18 20 24 26 26 25 24 22 22 20 19 19 16 12 12 16 21 22 19 18 20 22 25 27 28 29 30 30 30 32 32 30 28 27 26 25 22 22 24 24 24 25 25 25 25 26 26 26
23 23 23 23 23 25 25 26 27 28 28 28 29 29 29 29 28 29 29 28 27 27 26 23 23 25 24 22 26 30 29 28 26 22 21 21 21 20 19 19 17 15 17 22 20 17 19 22 24 27 28 27 28 29 30 31 32 31 30 28 27 27 26 26 27 26 25 25 25 25 25 25 25 26
25 25 25 25 26 26 27 27 28 29 29 29 29 29 29 30 30 30 31 31 30 30 30 28 28 29 29 27 29 31 31 30 29 27 25 24 23 22 23 23 20 16 18 22 19 15 17 22 24 26 27 26 27 29 29 30 31 30 30 28 26 26 25 24 24 25 24 24 25 25 25 25 26 25
21 22 24 26 27 28 29 29 28 29 30 30 29 28 29 30 30 31 33 33 32 32 32 32 31 30 31 30 29 29 30 31 31 30 28 27 26 25 23 19 18 18 20 21 19 14 16 21 23 23 24 24 26 28 28 28 28 27 26 25 23 23 22 21 22 22 22 23 24 24 25 25 25 25
18 19 20 22 24 26 28 29 29 29 30 29 29 28 28 29 29 31 32 32 32 32 32 32 31 30 29 28 28 28 29 30 31 28 25 25 25 22 16 14 17 19 20 22 22 16 14 19 22 20 20 21 24 26 27 27 26 25 23 22 21 21 20 21 22 22 22 23 23 24 24 24 25 25
18 19 20 21 22 24 26 28 29 29 29 29 28 28 27 27 27 28 30 30 31 32 32 31 30 29 28 27 27 28 28 28 30 28 24 23 25 20 12 10 14 19 21 23 24 19 14 18 21 18 16 18 21 22 24 26 25 23 21 20 20 21 21 22 22 22 23 23 23 24 25 24 24 23
19 20 21 22 23 24 26 26 27 29 30 29 29 28 27 25 25 25 26 27 28 29 30 30 29 28 28 26 26 27 27 27 29 30 27 26 27 21 14 11 12 15 21 26 25 20 15 17 20 17 13 13 17 20 21 22 23 23 22 20 19 20 20 20 22 22 23 24 24 24 24 24 24 24
21 21 23 24 25 26 26 26 27 29 30 30 30 29 26 24 25 26 26 26 26 26 27 29 28 28 28 27 26 26 26 28 30 31 30 29 29 24 19 16 12 8 14 26 28 20 16 18 20 19 12 6 10 17 20 20 21 22 23 23 22 22 22 21 22 22 21 22 24 24 23 22 21 23
21 22 23 25 26 27 26 26 28 30 32 33 32 30 27 25 25 26 26 27 27 28 28 28 27 26 26 27 27 27 27 28 31 32 30 29 30 27 23 21 17 11 14 25 31 25 19 20 22 23 17 8 5 12 19 21 22 22 23 25 25 25 26 26 26 25 25 25 25 25 23 20 18 20
20 21 23 24 26 26 26 26 27 29 32 34 33 31 30 29 27 25 27 28 28 28 28 27 26 25 23 24 26 27 28 29 30 31 30 29 30 30 26 24 22 18 16 21 30 29 23 20 23 23 20 13 7 8 12 17 21 22 23 24 25 25 25 27 28 29 29 29 28 28 28 25 23 24
19 22 25 25 25 24 24 25 25 26 29 32 33 33 32 31 28 27 28 28 27 26 25 24 23 23 22 22 24 27 28 28 29 30 30 30 30 30 29 27 25 24 22 21 27 32 27 23 25 25 21 16 11 8 10 11 14 18 21 22 22 23 24 25 26 27 28 29 29 29 30 29 28 28
21 23 25 25 24 22 21 22 22 22 24 27 31 33 31 31 31 28 26 25 25 24 22 21 21 21 22 23 24 26 27 28 29 29 29 30 29 28 28 28 27 28 28 24 26 32 31 26 27 27 25 20 13 9 9 10 11 13 17 19 20 20 22 23 23 23 23 24 26 27 27 28 28 28
19 18 15 14 15 16 16 17 18 18 19 22 27 30 30 31 32 28 24 24 24 22 21 20 19 21 23 24 25 27 28 28 28 29 28 28 28 27 27 26 25 24 23 22 24 30 31 28 27 27 28 25 19 12 10 12 13 15 15 16 18 20 21 22 21 21 21 21 22 23 24 25 26 25
13 12 9 6 6 9 11 12 14 14 14 16 22 27 28 29 30 27 24 24 23 21 20 20 20 21 23 25 25 27 29 29 28 29 28 27 26 26 25 22 20 18 18 19 23 27 29 29 27 26 26 26 23 20 15 13 15 17 17 16 16 17 19 21 20 20 20 20 21 21 22 22 22 22
9 9 8 7 6 7 9 9 11 11 9 9 16 24 26 26 27 26 25 25 23 21 22 21 21 21 23 23 24 25 27 29 29 30 30 28 26 26 25 21 18 16 17 19 23 25 26 27 25 24 24 23 22 21 19 16 15 16 17 17 15 12 14 17 19 19 19 19 19 19 19 19 19 19
7 7 6 8 8 8 8 7 8 9 6 5 11 20 23 23 23 24 26 27 25 23 23 21 20 21 22 22 22 23 25 28 29 30 31 30 27 26 25 22 19 18 19 21 22 23 23 22 21 20 21 22 20 19 19 18 17 17 16 17 16 13 12 12 14 15 16 16 16 17 17 18 19 19
5 4 2 1 5 8 8 7 7 8 6 6 9 14 16 17 18 20 22 23 21 20 21 21 20 20 21 20 21 23 24 26 27 28 29 30 28 27 25 21 19 19 19 20 21 21 20 19 18 16 17 19 19 19 19 18 19 20 19 19 20 19 17 15 14 14 13 14 17 18 18 18 19 19
6 7 9 10 8 9 12 13 13 13 13 12 13 13 14 15 16 17 18 18 18 19 20 21 21 20 20 20 21 22 22 23 25 27 28 29 28 26 23 21 21 23 23 21 21 21 20 19 18 17 17 17 17 18 19 18 20 22 22 21 20 20 19 18 17 15 14 15 17 18 18 20 20 20
8 11 13 13 12 11 12 14 15 16 16 16 15 14 14 15 15 15 16 17 17 18 19 20 21 22 21 21 22 22 23 23 24 24 26 28 29 26 23 20 21 23 24 24 23 22 21 20 19 17 17 17 17 18 19 19 20 21 21 20 20 20 19 18 16 15 14 14 15 16 20 22 22 21
11 12 12 12 13 13 13 13 13 15 16 16 16 15 14 14 14 15 15 15 17 18 18 19 20 21 22 22 23 23 24 24 24 23 24 26 27 25 24 23 22 22 22 23 23 23 21 21 19 16 13 11 11 13 17 21 21 20 18 18 19 20 19 18 16 14 13 13 14 16 20 24 25 23
13 12 12 11 11 12 13 13 13 15 15 16 16 16 15 14 13 14 15 15 16 17 18 19 20 20 21 22 22 23 24 25 24 22 23 24 24 22 21 21 22 22 21 21 22 23 21 21 20 16 9 5 3 5 10 16 20 20 20 20 20 19 18 16 14 14 14 14 15 17 19 24 27 25
12 12 12 12 11 11 12 12 13 14 15 15 15 15 15 15 13 12 13 13 14 16 17 18 20 20 21 21 21 22 23 24 24 23 23 23 22 20 19 18 18 20 20 19 20 22 22 21 22 18 10 4 3 4 6 9 14 17 20 22 21 19 17 14 14 15 16 16 18 19 21 25 28 27
11 10 11 11 10 11 11 11 12 13 13 14 14 14 14 14 12 11 11 12 13 14 16 17 18 19 20 21 21 21 21 20 20 21 22 22 21 19 18 17 17 18 18 18 19 21 22 21 22 22 14 7 4 5 6 7 9 12 16 18 19 18 16 15 16 18 18 18 20 21 22 25 28 28
10 10 9 9 8 8 9 9 10 11 12 12 13 13 12 11 10 10 10 11 12 13 14 16 17 18 20 21 22 22 22 20 19 19 20 21 20 19 18 17 17 17 17 17 18 20 21 22 23 24 22 16 11 10 10 8 8 9 11 13 15 16 16 17 19 19 20 21 21 22 22 24 26 26
10 9 8 7 6 6 6 6 8 9 10 10 10 9 8 7 7 8 9 10 11 12 13 15 16 18 19 20 21 21 21 21 21 21 21 21 20 19 19 19 18 19 18 17 18 21 24 25 26 25 25 23 19 15 12 10 11 14 15 15 16 17 18 19 20 21 21 21 19 19 20 21 22 23
9 8 7 6 5 4 4 5 6 7 8 8 8 7 5 4 4 5 6 8 10 11 12 14 15 17 18 20 21 21 20 19 20 20 21 21 20 19 19 18 19 20 18 16 19 23 26 27 26 23 22 21 19 13 8 7 10 15 19 19 19 19 20 21 21 22 23 22 20 19 20 21 21 23
10 9 7 6 5 4 3 3 4 5 6 7 6 5 3 2 2 4 6 8 9 10 12 13 14 16 17 18 20 21 21 21 20 19 20 20 19 18 18 18 20 21 20 19 21 25 25 23 22 21 20 20 18 12 7 7 10 14 16 18 18 18 19 20 20 20 20 21 21 20 19 17 14 14
10 9 8 7 6 5 3 2 2 3 4 4 4 3 2 2 2 4 5 7 9 11 12 13 13 15 16 17 19 20 20 20 21 20 20 21 20 20 20 21 22 22 22 21 20 20 20 19 19 20 19 19 19 16 14 15 17 18 19 20 20 20 20 20 21 21 21 22 23 24 23 20 15 13
10 9 8 8 7 6 5 4 2 1 1 2 2 2 2 2 2 3 4 6 9 10 11 12 13 14 15 16 18 19 19 19 19 20 20 20 21 22 22 22 22 22 22 19 16 15 16 17 17 17 18 20 21 21 20 19 19 20 22 22 22 24 24 24 23 24 25 26 27 27 28 29 29 30
10 10 9 8 8 7 7 5 4 4 3 3 3 3 4 4 4 4 4 6 7 9 10 11 12 13 15 16 17 18 19 18 18 19 19 20 21 22 21 21 21 21 21 20 17 16 16 15 15 17 19 20 21 22 23 22 21 21 23 23 24 26 26 26 26 26 29 31 31 29 28 30 32 34
Wind_Direction
243 238 235 232 231 234 233 233 235 236 235 231 224 216 208 206 199 188 198 203 213 215 213 217 226 229 230 233 236 237 240 243 242 240 240 241 242 243 244 244 243 239 234 233 233 233 234 237 237 235 234 236 237 236 236 233 230 232 231 226 226 229 231 234 235 233 232 231 227 223 222 223 226 229
247 242 237 232 229 227 225 227 229 232 235 235 233 229 220 214 210 196 198 212 203 197 207 217 225 229 230 232 235 237 241 243 242 240 240 241 242 243 244 245 243 239 234 233 232 233 233 233 234 235 233 233 234 232 234 235 232 232 234 234 234 236 238 240 242 237 230 228 227 225 222 221 223 226
251 247 240 233 228 223 220 221 223 226 231 234 234 233 229 224 222 216 207 225 210 194 199 215 223 229 233 234 235 238 240 241 241 240 240 241 242 243 243 243 242 239 235 232 232 233 232 231 231 233 232 231 232 230 229 232 233 233 235 238 239 241 242 241 243 239 229 223 221 218 216 218 223 227
250 247 241 232 225 221 219 219 221 225 230 233 233 231 228 225 225 222 219 235 221 202 205 216 221 226 234 235 235 238 239 239 239 240 241 241 240 238 240 241 240 239 236 233 232 232 232 230 229 230 230 229 230 230 229 230 233 234 236 239 240 242 244 243 241 236 228 219 214 214 214 214 220 229
245 239 234 231 226 220 220 222 222 225 229 231 231 230 226 222 221 219 217 225 235 217 214 220 221 223 227 231 235 238 238 238 238 237 238 238 237 237 239 241 241 240 237 234 231 230 231 231 229 228 227 227 227 229 230 231 232 234 237 239 240 240 242 244 243 238 232 224 219 221 221 220 222 226
242 236 230 231 232 228 229 230 228 227 228 228 228 226 224 221 220 218 214 216 228 221 213 219 222 219 220 227 233 235 237 240 239 236 235 234 236 238 238 240 242 242 239 236 232 229 229 230 229 226 225 226 225 225 228 231 232 234 235 237 239 238 239 241 242 240 237 233 230 229 229 231 233 231
240 237 234 235 237 236 236 235 233 230 227 226 226 226 224 222 221 220 217 215 219 216 211 216 219 218 219 226 232 236 240 241 240 238 237 235 234 235 235 237 240 242 240 238 234 229 227 227 228 227 225 225 224 223 224 228 231 232 231 232 236 239 240 240 240 240 240 239 239 240 239 239 240 241
241 237 235 236 238 237 236 234 231 228 225 225 224 224 224 223 223 222 219 219 221 217 206 210 218 221 223 227 231 234 236 236 237 238 236 234 233 234 234 235 238 241 240 238 235 231 227 225 225 227 227 225 223 223 222 223 228 229 229 229 231 237 242 242 240 238 237 239 242 244 245 242 241 242
241 237 235 237 238 235 231 229 227 225 224 223 223 222 221 221 223 223 221 222 224 223 211 205 214 220 223 226 227 229 229 227 228 231 232 231 232 233 235 237 238 239 238 237 235 232 229 225 222 223 226 226 224 224 223 223 225 227 229 228 228 231 236 237 236 233 232 233 234 236 239 239 240 239
241 238 238 239 238 234 229 226 225 225 223 221 221 221 220 220 221 221 221 222 224 226 223 213 205 208 215 220 221 224 225 222 219 220 224 228 231 231 232 234 236 236 235 234 232 230 228 225 222 220 221 223 223 225 225 225 225 227 229 229 228 229 232 232 231 230 231 232 233 234 232 232 236 238
242 240 240 241 239 236 233 230 228 226 224 221 221 222 222 222 220 219 219 220 220 222 225 218 203 201 209 215 218 221 220 218 218 213 211 218 224 227 227 228 229 231 232 232 232 230 228 226 224 222 221 219 218 220 223 225 227 227 227 229 229 229 231 232 230 229 230 234 237 236 232 232 237 240
243 243 242 242 241 240 238 236 233 231 227 223 221 222 223 221 219 218 216 216 217 217 219 217 203 197 201 205 211 214 205 202 211 213 210 212 217 220 223 225 227 229 231 231 231 230 228 226 225 225 225 223 220 219 220 224 226 226 225 228 230 230 230 231 230 229 231 234 236 236 236 238 240 241
241 242 243 244 244 243 242 239 237 236 233 229 225 223 222 220 218 217 215 214 214 213 216 214 199 189 193 195 195 194 193 199 210 212 209 212 217 217 219 223 226 228 229 228 228 228 227 225 225 226 227 228 226 225 223 221 223 226 227 228 231 233 232 229 228 230 233 235 236 236 238 240 241 241
242 242 243 245 246 246 245 243 240 237 235 234 233 231 228 223 219 215 214 214 214 212 211 209 198 187 190 195 193 193 200 207 210 204 201 207 209 204 209 223 227 226 225 222 223 226 226 224 224 225 228 229 229 228 226 221 222 224 223 223 227 230 230 228 229 231 232 233 235 237 238 240 241 242
253 250 248 248 248 247 246 245 242 239 237 235 234 234 233 231 227 220 215 214 213 212 212 209 202 195 197 199 198 199 204 206 204 202 202 202 193 185 193 216 225 224 222 218 219 224 224 222 223 225 228 229 230 231 228 223 223 225 222 221 222 222 223 227 231 233 233 234 236 237 239 241 242 243
257 254 252 250 248 246 245 244 243 240 238 236 233 232 232 232 232 227 223 220 216 213 213 209 204 203 203 200 199 201 203 203 202 203 202 198 192 193 200 209 218 224 220 214 215 222 222 221 221 224 227 229 229 231 230 226 225 226 225 225 224 221 222 226 229 232 235 236 238 239 239 241 242 243
254 253 252 249 248 247 244 242 240 238 237 235 233 232 231 231 231 230 229 228 224 220 216 211 209 210 206 200 203 207 206 202 199 198 200 201 198 200 208 214 218 222 217 209 209 217 220 218 219 223 226 228 228 230 230 228 227 227 227 229 229 227 228 230 230 232 235 237 239 239 240 241 242 242
249 247 246 244 244 246 243 239 236 234 233 232 231 231 230 230 229 229 229 229 228 225 220 216 215 215 212 211 214 215 209 204 200 198 200 203 204 209 219 224 222 221 219 212 206 211 220 218 218 223 225 226 228 229 230 228 227 227 228 229 229 229 231 233 234 235 236 237 239 239 240 241 242 243
254 251 247 243 241 241 241 238 233 230 228 228 228 228 229 229 228 228 227 226 225 224 223 222 221 221 220 220 221 219 215 212 212 211 212 212 213 216 221 222 220 219 219 212 203 207 218 214 215 222 224 225 228 229 230 230 228 226 224 224 225 227 229 232 234 235 236 237 238 239 239 239 241 243
268 262 255 251 246 241 240 238 234 230 226 224 223 224 226 227 226 227 227 226 225 224 224 225 226 227 228 226 225 224 221 219 217 214 212 210 206 204 204 207 211 212 213 210 206 206 212 210 212 218 222 223 227 228 229 230 228 226 224 223 225 226 227 231 232 234 235 236 238 238 239 240 241 243
272 266 260 258 254 249 244 240 236 231 225 220 219 220 222 223 224 226 227 226 227 226 225 226 227 229 230 229 227 226 224 221 215 203 195 195 192 186 187 200 205 205 206 209 209 209 210 208 208 209 212 218 223 226 229 229 227 225 223 223 226 227 227 231 232 233 235 235 237 238 239 241 242 243
272 266 262 258 255 252 249 243 238 232 223 217 216 217 218 219 220 222 222 222 224 225 226 228 227 226 226 224 223 223 221 219 213 204 200 197 189 185 193 195 190 199 208 208 205 207 212 207 201 196 197 211 220 222 226 228 225 223 220 219 222 225 228 231 233 235 237 237 237 238 239 240 242 243
270 266 263 260 254 250 249 244 238 232 223 217 216 215 213 214 217 217 216 217 219 221 223 226 224 222 221 219 219 220 218 217 216 216 213 204 193 192 197 189 170 180 212 207 200 200 206 203 196 192 186 195 222 221 221 223 223 223 223 222 223 224 226 229 229 229 232 233 234 234 235 236 239 240
269 267 264 262 257 251 246 242 238 232 224 218 217 214 210 211 214 213 213 217 220 220 221 222 220 219 218 217 217 217 215 214 217 219 216 211 206 202 196 189 186 199 216 206 198 199 204 202 199 198 198 199 208 210 214 218 220 221 224 226 228 229 230 230 228 227 228 230 231 230 228 227 229 234
270 269 265 262 259 254 246 241 239 236 228 221 216 213 212 213 213 211 213 217 219 219 219 217 216 216 215 213 213 213 212 211 213 214 215 218 217 210 201 196 197 206 218 209 201 200 199 196 195 196 200 208 203 185 198 212 218 221 225 229 231 231 232 232 232 232 233 235 236 234 231 229 231 236
276 275 273 267 260 251 244 240 238 238 235 227 218 214 215 215 213 211 214 215 214 214 215 214 212 211 210 209 208 209 211 211 211 214 216 218 219 216 214 212 209 214 220 213 204 203 201 196 195 192 192 200 204 191 189 201 212 218 223 229 232 232 232 232 232 233 235 236 236 236 236 237 240 243
281 282 280 273 262 248 238 236 236 236 239 234 223 215 213 213 212 210 210 210 209 210 212 212 210 208 207 206 205 206 209 210 211 213 215 217 217 216 216 218 220 225 226 217 206 206 206 203 201 200 199 197 192 191 200 202 206 213 218 224 227 227 226 228 228 230 233 235 236 237 239 241 243 245
289 291 289 276 261 245 232 233 235 235 240 239 228 217 211 210 210 205 201 204 206 207 209 209 209 208 206 206 206 207 208 208 208 209 210 211 213 212 212 214 217 222 225 218 209 207 209 209 208 208 209 206 196 194 203 207 211 215 215 219 223 224 225 229 232 234 236 239 241 241 242 244 244 244
297 298 297 281 251 233 228 232 233 234 243 242 228 216 208 206 205 201 198 201 200 201 204 206 206 208 207 207 208 208 206 204 202 201 201 202 204 206 206 207 209 211 212 208 206 206 210 213 213 210 210 212 210 209 207 206 213 219 219 220 223 226 230 232 235 238 240 242 246 246 247 248 247 245
305 298 285 267 238 215 217 227 228 233 247 243 221 214 208 204 202 200 197 198 196 197 202 204 204 205 204 205 206 205 202 198 195 194 193 191 191 195 195 190 187 191 193 194 199 203 207 213 216 213 209 211 215 218 216 211 213 219 223 225 226 229 234 236 237 240 241 242 246 248 248 249 249 247
327 314 286 259 241 220 212 219 218 219 233 227 207 207 206 204 201 199 198 201 201 201 200 199 198 198 198 198 198 196 194 192 190 190 189 183 179 182 183 175 166 170 177 183 190 195 199 205 211 213 210 208 209 215 218 220 222 225 229 233 234 235 236 235 235 238 240 243 248 250 251 251 251 251
3 7 22 190 199 189 180 174 165 161 158 153 166 179 186 189 190 191 194 197 197 195 193 190 188 188 188 188 188 186 185 185 184 185 184 180 175 173 172 165 156 159 166 173 180 186 190 195 201 207 213 213 213 215 218 222 228 233 237 241 244 244 242 241 244 248 250 253 257 257 255 255 255 255
39 55 61 69 91 123 132 129 125 125 125 124 131 144 155 163 170 177 181 182 183 185 186 184 181 180 178 178 179 178 177 178 178 179 179 177 172 170 169 165 162 165 167 171 178 184 188 194 200 204 209 215 220 222 222 225 232 236 240 244 247 249 251 251 253 256 255 255 258 260 258 257 256 257
50 58 57 56 60 80 102 110 113 118 120 119 119 125 138 149 157 164 171 175 177 180 182 181 180 178 176 174 174 174 173 173 173 175 178 176 171 168 166 164 166 172 176 177 182 188 192 197 201 204 209 215 221 226 227 228 234 240 243 245 248 252 257 259 259 259 257 254 258 263 264 262 259 258
58 57 57 56 57 68 80 88 100 112 117 119 120 121 126 136 147 155 163 170 174 176 177 177 177 178 177 175 174 175 173 170 169 172 175 174 172 171 169 168 171 177 180 183 187 191 194 196 195 194 200 211 224 236 237 234 236 241 243 245 250 253 258 262 263 261 258 254 255 261 267 269 268 265
60 60 62 59 59 69 76 80 92 105 110 115 121 124 124 127 140 152 160 169 175 177 177 176 176 178 178 176 175 176 174 169 167 169 171 171 172 172 172 173 176 179 183 188 191 191 192 194 191 183 174 169 197 248 248 239 237 241 242 245 251 255 258 263 262 257 254 253 252 255 262 269 274 275
61 64 68 67 66 74 81 87 96 104 111 117 122 127 128 131 139 151 159 167 175 178 179 179 178 178 177 176 174 174 173 170 169 168 169 171 172 171 170 172 177 181 184 189 192 191 190 191 189 182 171 156 181 223 249 243 238 239 240 242 248 253 255 256 255 253 254 255 256 258 260 266 274 281
60 63 69 73 79 85 92 100 107 110 115 123 125 128 131 134 140 149 159 168 174 177 178 179 178 177 178 178 175 172 171 171 170 169 170 171 171 172 171 172 175 180 182 184 189 191 191 191 191 189 182 172 188 223 237 238 236 238 239 240 244 247 248 247 249 254 258 260 264 267 266 267 276 284
52 55 63 72 82 91 98 108 116 119 123 128 130 130 131 135 143 152 161 170 174 177 179 180 180 181 180 180 179 176 174 173 173 173 174 176 177 179 178 176 174 175 176 177 183 188 192 196 199 199 198 200 210 222 224 224 232 239 238 237 240 243 243 244 248 255 262 266 269 273 274 276 280 284
46 51 58 65 76 92 105 115 124 129 131 132 131 127 125 132 148 159 168 174 178 181 183 184 185 184 183 183 183 180 179 180 181 181 182 185 186 186 185 183 179 176 175 176 182 190 198 205 210 212 213 216 221 231 241 248 254 251 244 240 243 245 248 251 254 258 264 269 273 275 277 279 280 282
39 45 51 55 65 83 105 125 137 141 139 135 128 121 117 126 152 171 183 187 188 189 189 189 190 189 188 189 189 187 184 185 188 189 189 190 191 192 191 187 182 179 178 181 189 199 207 214 217 219 222 223 226 234 251 262 259 256 253 250 249 248 249 254 258 261 266 271 274 274 275 276 277 278
31 36 41 43 49 64 85 116 142 149 146 138 128 121 122 135 171 199 204 202 201 201 200 198 197 197 197 196 196 195 193 192 193 195 196 194 192 191 192 190 188 188 189 194 202 209 214 219 220 220 223 225 224 224 231 242 246 254 259 258 256 252 250 250 251 254 260 265 265 264 267 272 276 273
27 29 33 34 36 42 49 64 115 147 155 150 143 144 154 175 208 220 218 213 210 210 208 207 206 206 206 205 204 203 202 202 202 202 202 201 199 197 198 199 200 200 201 204 210 214 216 218 221 222 222 223 221 218 227 241 247 253 259 263 264 264 263 260 257 254 255 256 256 254 256 257 256 254
27 27 29 30 31 32 29 28 28 6 253 208 196 198 209 231 247 243 236 228 222 218 218 216 214 213 214 213 211 210 210 212 213 212 211 211 210 207 207 207 207 207 208 208 208 210 214 218 220 220 219 221 221 222 228 240 248 253 259 264 268 270 271 272 271 269 266 264 261 259 258 256 255 257
30 29 28 28 28 27 24 18 10 354 332 301 277 262 256 262 268 269 264 252 239 231 228 225 223 223 222 221 220 219 219 220 221 222 221 219 217 214 214 214 212 211 213 211 208 209 214 216 216 218 221 224 226 228 234 242 249 256 261 265 267 269 272 276 278 279 279 275 271 269 268 267 264 262